This demonstration page uses our WeatherBlox Daily Observations layout. Learn more.

Left ArrowRight Arrow

39.95238, -75.16362

Hourly Observations for August 22, 2022

Temp ( °F °C ) Dew Point ( °F °C ) Humidity (%) Winds ( mph kmh ) Pressure ( in mb ) Visibility ( mi km ) Precip ( " mm )
12:13 am 00:13 Cloudy with Light Rain 75 23.9 72 22.2 90 90 ESE 5 7 30.01 1016 7 11 0.01 0.13
12:31 am 00:31 Cloudy with Rain 75 23.9 72 22.2 90 90 SE 6 9 30.01 1016 6 10 0.02 0.51
12:46 am 00:46 Cloudy with Light Rain 75 23.9 72 22.2 90 90 ESE 5 7 30.00 1016 7 11 0.04 1.02
12:54 am 00:54 Cloudy with Light Rain 75 23.9 73 22.8 94 94 ESE 6 9 30.00 1016 7 11 0.05 1.27
1:20 am 01:20 Cloudy with Rain 75 23.9 72 22.2 90 90 ESE 6 9 30.00 1016 5 8 0.06 1.52
1:37 am 01:37 Cloudy with Light Rain 75 23.9 73 22.8 94 94 SE 5 7 30.00 1016 6 10 0.08 2.03
1:54 am 01:54 Cloudy with Light Rain 75 23.9 73 22.8 94 94 S 5 7 29.99 1016 6 10 0.08 2.03
2:03 am 02:03 Cloudy with Light Rain 75 23.9 73 22.8 94 94 S 5 7 29.99 1016 10 16 0.01 0.13
2:47 am 02:47 Cloudy 74 23.3 71 21.7 91 91 ESE 5 7 29.98 1015 10 16 0.01 0.25
2:54 am 02:54 Cloudy 74 23.3 71 21.7 91 91 ESE 6 9 29.97 1015 10 16 0.01 0.25
3:37 am 03:37 Cloudy with Rain 74 23.3 71 21.7 91 91 SE 7 11 29.96 1014 6 10 0.02 0.51
3:46 am 03:46 Cloudy with Light Rain 73 22.8 71 21.7 94 94 SE 7 11 29.95 1014 8 13 0.05 1.27
3:54 am 03:54 Cloudy with Light Rain 74 23.3 71 21.7 91 91 SE 7 11 29.95 1014 8 13 0.06 1.52
4:44 am 04:44 Cloudy 74 23.3 71 21.7 91 91 Calm 29.94 1014 10 16 0.01 0.13
4:54 am 04:54 Cloudy 74 23.3 71 21.7 91 91 Calm 29.93 1014 10 16 0.01 0.13
5:54 am 05:54 Cloudy 74 23.3 72 22.2 94 94 ESE 6 9 29.93 1014 10 16 0.00 0.00
6:12 am 06:12 Mostly Cloudy 74 23.3 72 22.2 94 94 ESE 5 7 29.93 1013 10 16 0.00 0.00
6:54 am 06:54 Cloudy 75 23.9 72 22.2 90 90 SE 3 6 29.93 1014 10 16 0.00 0.00
7:07 am 07:07 Cloudy 75 23.9 72 22.2 90 90 SE 6 9 29.94 1014 10 16 0.00 0.00
7:34 am 07:34 Cloudy 75 23.9 73 22.8 94 94 ESE 6 9 29.93 1013 7 11 0.00 0.00
7:54 am 07:54 Cloudy 75 23.9 73 22.8 94 94 ESE 5 7 29.93 1013 7 11 0.00 0.00
8:43 am 08:43 Cloudy 76 24.4 73 22.8 91 91 ESE 7 11 29.92 1013 8 13 0.00 0.00
8:54 am 08:54 Cloudy 76 24.4 73 22.8 91 91 ESE 8 13 29.92 1013 9 14 0.00 0.00
9:50 am 09:50 Cloudy 79 26 73 23 84 84 E 3 6 29.92 1013 10 16 0.00 0.00
9:54 am 09:54 Cloudy 78 25.6 73 22.8 85 85 E 5 7 29.92 1013 10 16 0.00 0.00
10:54 am 10:54 Cloudy 79 26.1 73 22.8 82 82 SE 6 9 29.91 1013 10 16 0.00 0.00
11:24 am 11:24 Mostly Cloudy 79 26.1 73 22.8 82 82 SE 8 13 29.91 1013 10 16 0.00 0.00
11:54 am 11:54 Mostly Cloudy 80 26.7 72 22.2 76 76 S 8 13 29.91 1013 10 16 0.00 0.00
12:10 pm 12:10 Mostly Cloudy 82 27.8 73 22.8 74 74 SSW 8 13 29.90 1012 10 16 0.00 0.00
12:54 pm 12:54 Mostly Cloudy 83 28.3 72 22.2 70 70 S 5 7 29.88 1012 10 16 0.00 0.00
1:54 pm 13:54 Mostly Cloudy 81 27.2 71 21.7 72 72 VRB 3 6 29.86 1011 10 16 0.02 0.51
2:54 pm 14:54 Mostly Cloudy 86 30 72 22.2 63 63 SSE 3 6 29.84 1011 10 16 0.00 0.00
3:54 pm 15:54 Mostly Cloudy 86 30 69 20.6 57 57 W 3 6 29.82 1010 10 16 0.00 0.00
4:54 pm 16:54 Mostly Cloudy 87 30.6 70 21.1 57 57 S 6 9 29.80 1009 10 16 0.00 0.00
5:54 pm 17:54 Mostly Cloudy 86 30 69 20.6 57 57 S 7 11 29.80 1009 10 16 0.00 0.00
6:54 pm 18:54 Mostly Cloudy with Light Rain 83 28.3 72 22.2 70 70 SSE 6 9 29.79 1009 10 16 0.01 0.13
7:19 pm 19:19 Mostly Cloudy with Nearby Thunderstorms 83 28.3 73 22.8 72 72 WSW 14 22 29.81 1009 10 16 0.01 0.13
7:30 pm 19:30 Mostly Cloudy 83 28.3 73 22.8 72 72 WSW 13 20 29.82 1010 10 16 0.01 0.13
7:44 pm 19:44 Mostly Cloudy with Nearby Thunderstorms 82 27.8 74 23.3 77 77 SW 10 17 29.81 1009 10 16 0.01 0.13
7:54 pm 19:54 Mostly Cloudy with Nearby Thunderstorms 82 27.8 74 23.3 77 77 WSW 17 28 29.82 1010 10 16 0.01 0.13
8:00 pm 20:00 Mostly Cloudy with Light Rain 81 27.2 73 22.8 77 77 WSW 13 20 29.82 1010 10 16 0.01 0.13
8:30 pm 20:30 Mostly Cloudy with Nearby Thunderstorms 79 26.1 71 21.7 77 77 WSW 12 19 29.83 1010 10 16 0.01 0.13
8:45 pm 20:45 Mostly Cloudy 79 26.1 72 22.2 79 79 W 9 15 29.83 1010 10 16 0.01 0.13
8:54 pm 20:54 Mostly Cloudy 79 26.1 72 22.2 79 79 W 10 17 29.82 1010 10 16 0.01 0.13
9:54 pm 21:54 Mostly Cloudy 75 23.9 70 21.1 84 84 NNE 10 17 29.85 1011 10 16 0.00 0.00
10:54 pm 22:54 Mostly Cloudy 74 23.3 69 20.6 85 85 Calm 29.85 1011 10 16 0.00 0.00
11:54 pm 23:54 Mostly Cloudy 74 23.3 69 20.6 85 85 Calm 29.84 1011 10 16 0.00 0.00

Powered by AerisWeather